Regional Weather Roundup
Issued by NWS

Home | Current Version | Previous Version | Graphics & Text | Print | Product List | Glossary On
Versions: 1 2 3 4 5 6 7 8 9 10 11 12 13 14 15 16 17 18 19 20 21 22 23 24 25 26 27 28 29 30 31 32 33 34 35 36 37 38 39 40 41 42 43 44 45 46 47 48 49 50
000
ASUS45 KPSR 222310
RWRAZ

ARIZONA REGIONAL HOURLY WEATHER ROUNDUP
NATIONAL WEATHER SERVICE PHOENIX AZ
400 PM MST TUE JUL 22 2014

NOTE: FAIR INDICATES FEW OR NO CLOUDS BELOW 12,000 FEET WITH NO
SIGNIFICANT WEATHER AND/OR OBSTRUCTIONS TO VISIBILITY.

AZZ001>003-036-230000-
NORTHWEST ARIZONA

CITY           SKY/WX    TMP DP  RH WIND       PRES   REMARKS
BULLHEAD CITY  SUNNY    109  32   7 SW9       29.85F HX 102
KINGMAN        SUNNY    100  19   5 SW12G22   30.08F
$$

AZZ004>008-015-016-018-230000-
NORTH CENTRAL ARIZONA

CITY           SKY/WX    TMP DP  RH WIND       PRES   REMARKS
GRAND CANYON   PTSUNNY   88  33  14 SE12G20   30.35F
WILLIAMS       PTSUNNY   84  36  17 S7        30.42F
PRESCOTT       PTSUNNY   93  38  14 CALM      30.20F
FLAGSTAFF      PTSUNNY   85  35  16 CALM      30.38F
PAYSON         MOSUNNY   97  37  12 W14G22    30.20F
PAGE           SUNNY    102  31   8 VRB3      30.11F
$$

AZZ009>014-017-230000-
NORTHEAST ARIZONA

CITY           SKY/WX    TMP DP  RH WIND       PRES   REMARKS
WINSLOW        MOSUNNY   99  35  10 VRB3      30.17F
SAINT JOHNS    PTSUNNY   92  39  15 E7        30.22F
WINDOW ROCK    MOSUNNY   88  31  13 E7        30.34F
SHOW LOW       MOSUNNY   86  39  19 SE15      30.33F
$$

AZZ023-230000-
GREATER PHOENIX AREA

CITY           SKY/WX    TMP DP  RH WIND       PRES   REMARKS
PHOENIX        PTSUNNY  111  44  10 VRB5      29.82F HX 106
BUCKEYE          N/A    111  45  10 W14       29.84F HX 106
GLENDALE       MOSUNNY  111  45  10 W5        29.84F HX 106
LUKE AFB       NOT AVBL
DEER VALLEY    SUNNY    109  41  10 SW6       29.85F HX 103
SCOTTSDALE     SUNNY    110  44  11 W9        29.87F HX 105
MESA-FALCON    MOSUNNY  109  43  10 W12       29.85  HX 104
MESA-GATEWAY   PTSUNNY  108  41  10 W13       29.88F HX 102
CHANDLER       MOSUNNY  109  45  11 W8        29.85F HX 104
$$

AZZ027-028-230000-
SOUTHWEST MARICOPA COUNTY AND PINAL COUNTY

CITY           SKY/WX    TMP DP  RH WIND       PRES   REMARKS
CASA GRANDE    SUNNY    109  48  13 N8G16     29.88F HX 106
GILA BEND      PTCLDY   111  43  10 VRB3      29.85F HX 106
$$

AZZ503-504-507>509-230000-
SOUTHEAST ARIZONA

CITY           SKY/WX    TMP DP  RH WIND       PRES   REMARKS
TUCSON         SUNNY    104  45  13 VRB5      29.99F HX 100
DAVIS-MONTHAN  SUNNY    102  48  16 E3        29.97F
RYAN FIELD       N/A    104  46  14 N8        29.97F HX 100
NOGALES        PTSUNNY   95  48  20 CALM      30.09F
SIERRA VISTA   MOSUNNY   97  46  17 CALM      30.17F
DOUGLAS        MOSUNNY   94  51  23 CALM      30.10F
SAFFORD        SUNNY    107  43  11 NW12      29.96F HX 102
$$

AZZ020-021-025-026-031-230000-
SOUTHWEST ARIZONA

CITY           SKY/WX    TMP DP  RH WIND       PRES   REMARKS
YUMA           MOSUNNY  112  33   7 W7        29.81F HX 104
$$

CAZ031-033-041-043-047-048-061-230000-
SOUTHERN CALIFORNIA

CITY           SKY/WX    TMP DP  RH WIND       PRES   REMARKS
DOWNTOWN L.A.  SUNNY     80  58  46 VRB6      30.00F
L.A. AIRPORT   MOSUNNY   75  59  57 W17       30.02F
SAN DIEGO      MOSUNNY   76  63  64 W16       30.02F
BURBANK        SUNNY     86  55  34 S10       30.00F
ONTARIO        MOSUNNY   92  56  29 W16       30.00F
RIVERSIDE      SUNNY     92  53  26 W14G21    29.99F
PALM SPRINGS   MOSUNNY  111  39   8 NW16G26   29.86F HX 105
EL CENTRO NAS  MOSUNNY  109  36   8 CALM      29.79F HX 102
IMPERIAL       MOSUNNY  109  38   9 VRB5      29.79F HX 102
BLYTHE         MOSUNNY  111  38   8 W6        29.82F HX 104
NEEDLES        SUNNY    113  23   4 CALM      29.86F HX 104
$$

NVZ020-UTZ003-230000-
SOUTHERN NEVADA-UTAH

CITY           SKY/WX    TMP DP  RH WIND       PRES   REMARKS
LAS VEGAS      MOSUNNY  107  22   5 SE9       29.91F
SALT LAKE CITY MOSUNNY   97  32  10 N12G18    30.10F
$$

NMZ009-TXZ055-230000-
NEW MEXICO-WEST TEXAS

CITY           SKY/WX    TMP DP  RH WIND       PRES   REMARKS
ALBUQUERQUE    PTSUNNY   94  44  17 E21       30.22S
EL PASO        TSTM      82  64  54 NE41G51   30.07R BLWGDUST
$$


........................KEY........................
SKY/WX - SKY CONDITION/WEATHER
TMP    - TEMPERATURE IN FAHRENHEIT
DP     - DEW POINT IN FAHRENHEIT
RH     - RELATIVE HUMIDITY IN PERCENT
WIND   - DIRECTION AND SPEED IN MILES PER HOUR (MPH)
VRB    - VARIABLE WIND DIRECTION
PRES   - MEAN SEA LEVEL PRESSURE IN INCHES OF MERCURY
         F - FALLING PRESSURE   R - RISING PRESSURE
         S - STEADY PRESSURE
VSB    - VISIBILITY IN MILES
HX     - HEAT INDEX IN FAHRENHEIT
WCI    - WIND CHILL INDEX IN FAHRENHEIT
TC     - TEMPERATURE IN CELSIUS WHICH IS ALSO KNOWN AS
         TEMPERATURE IN CENTIGRADE
AFB    - AIR FORCE BASE
         LUKE AFB IS LUKE AIR FORCE BASE
         DAVIS-MONTHAN IS DAVIS-MONTHAN AIR FORCE BASE
NAS    - NAVAL AIR STATION
         EL CENTRO NAS IS EL CENTRO NAVAL AIR STATION
N/A    - NOT AVAILABLE



USA.gov is the U.S. government's official web portal to all federal, state and local government web resources and services.